Home   Weather   Orlando   Past weeks
Flag for USA

Past Weather in Orlando, Florida, USA — April 2019

Now
51 °F

Overcast.


Feels Like: 46 °F
Forecast: 58 / 35 °F
Wind: 16 mph from North

Location: Orlando Executive Airport

Current Time: Jan 22, 2020 at 3:25:49 pm

Latest Report: Jan 22, 2020 at 2:10 pm


Visibility: 10 mi

Pressure: 30.09 "Hg

Humidity: 77%

Dew Point: 44 °F

Location of OrlandoLocation

April 2019 Weather in Orlando — Graph

°F

High & Low Weather Summary for April 2019

 TemperatureHumidityPressure
High90 °F (Apr 13, 3:53 pm)97% (Apr 7, 2:53 am)30.33 "Hg (Apr 7, 2:53 am)
Low56 °F (Apr 21, 6:53 am)23% (Apr 22, 2:53 pm)29.74 "Hg (Apr 9, 4:53 pm)
Average73 °F68%30.04 "Hg
* Reported Apr 1 12:53 am — Apr 30 11:53 pm, Orlando. Weather by CustomWeather, © 2020

Note: Actual official high and low records may vary slightly from our data, if they occured in-between our weather recording intervals... More about our weather records

Orlando Weather History for April 1, 2019

Scroll right to see more
 ConditionsComfort  
Time TempWeatherWind HumidityBarometerVisibility
12:53 am
Mon, Apr 1
72 °FClear.3 mph66%30.04 "Hg10 mi
1:53 am70 °FPassing clouds.No wind71%30.03 "Hg10 mi
2:53 am69 °FPassing clouds.3 mph76%30.03 "Hg10 mi
3:13 am70 °FPassing clouds.No wind73%30.02 "Hg10 mi
3:53 am70 °FPassing clouds.5 mph76%30.02 "Hg10 mi
4:08 am69 °FPartly cloudy.3 mph79%30.02 "Hg10 mi
4:53 am69 °FPassing clouds.6 mph81%30.03 "Hg10 mi
5:27 am69 °FPassing clouds.7 mph81%30.03 "Hg10 mi
5:53 am67 °FPassing clouds.9 mph85%30.04 "Hg10 mi
6:53 am65 °FOvercast.9 mph78%30.06 "Hg10 mi
7:53 am64 °FOvercast.9 mph75%30.09 "Hg10 mi
8:53 am65 °FOvercast.13 mph70%30.11 "Hg10 mi
9:53 am65 °FOvercast.10 mph70%30.12 "Hg10 mi
11:01 am67 °FMostly cloudy.9 mph68%30.12 "Hg10 mi
11:53 am70 °FPartly sunny.10 mph64%30.12 "Hg10 mi
12:53 pm71 °FPartly sunny.5 mph63%30.12 "Hg10 mi
1:53 pm69 °FLight rain. Cloudy.13 mph70%30.12 "Hg10 mi
2:53 pm65 °FLight rain. Mostly cloudy.7 mph81%30.13 "Hg10 mi
3:53 pm63 °FLight rain. Fog.3 mph93%30.09 "Hg4 mi
4:53 pm66 °FSunny.6 mph87%30.05 "Hg10 mi
5:53 pm68 °FOvercast.7 mph82%30.04 "Hg10 mi
6:30 pm68 °FBroken clouds.9 mph84%30.03 "Hg10 mi
6:53 pm67 °FLow clouds.6 mph87%30.05 "Hg10 mi
7:53 pm67 °FLow clouds.8 mph85%30.06 "Hg10 mi
8:53 pm67 °FOvercast.8 mph85%30.09 "Hg10 mi
10:01 pm66 °FLow clouds.3 mph87%30.11 "Hg10 mi
10:12 pm66 °FOvercast.3 mph87%30.11 "Hg10 mi
10:53 pm66 °FMostly cloudy.5 mph87%30.12 "Hg10 mi
11:19 pm66 °FLow clouds.5 mph87%30.12 "Hg10 mi
11:43 pm66 °FMostly cloudy.6 mph87%30.11 "Hg10 mi
11:53 pm66 °FMostly cloudy.5 mph87%30.12 "Hg10 mi
Weather by CustomWeather, © 2020

See weather overview

Advertising